TimeCDT,TemperatureF,Dew PointF,Humidity,Sea Level PressureIn,VisibilityMPH,Wind Direction,Wind SpeedMPH,Gust SpeedMPH,PrecipitationIn,Events,Conditions,WindDirDegrees,DateUTC
12:15 AM,67.1,59.0,75,30.24,10.0,ESE,8.1,-,N/A,,Clear,120,2013-07-27 05:15:00
12:35 AM,66.6,59.4,78,30.24,10.0,ESE,6.9,-,N/A,,Clear,120,2013-07-27 05:35:00
12:55 AM,65.7,59.5,81,30.24,10.0,ESE,9.2,-,N/A,,Clear,120,2013-07-27 05:55:00
1:15 AM,64.8,59.9,84,30.24,10.0,ESE,6.9,-,N/A,,Clear,120,2013-07-27 06:15:00
1:35 AM,64.4,59.9,85,30.23,10.0,SE,8.1,-,N/A,,Clear,130,2013-07-27 06:35:00
1:55 AM,61.9,58.5,89,30.23,10.0,SSE,4.6,-,N/A,,Clear,150,2013-07-27 06:55:00
2:15 AM,62.1,59.0,90,30.22,10.0,SSE,5.8,-,N/A,,Clear,160,2013-07-27 07:15:00
2:35 AM,62.2,59.4,90,30.21,10.0,South,4.6,-,N/A,,Clear,170,2013-07-27 07:35:00
2:55 AM,61.0,58.5,91,30.21,10.0,SSE,5.8,-,N/A,,Clear,160,2013-07-27 07:55:00
3:15 AM,62.1,58.8,89,30.21,10.0,SSE,5.8,-,N/A,,Clear,160,2013-07-27 08:15:00
3:35 AM,62.1,58.3,87,30.20,10.0,South,6.9,-,N/A,,Clear,170,2013-07-27 08:35:00
3:55 AM,60.8,58.1,91,30.19,10.0,South,8.1,-,N/A,,Clear,180,2013-07-27 08:55:00
4:15 AM,59.9,57.6,92,30.18,10.0,South,8.1,-,N/A,,Clear,170,2013-07-27 09:15:00
4:35 AM,59.5,57.2,92,30.18,10.0,South,6.9,-,N/A,,Clear,170,2013-07-27 09:35:00
4:55 AM,59.2,57.0,93,30.17,7.0,South,6.9,-,N/A,,Clear,170,2013-07-27 09:55:00
5:15 AM,58.6,56.5,93,30.17,7.0,South,6.9,-,N/A,,Clear,170,2013-07-27 10:15:00
5:35 AM,58.5,56.3,93,30.17,10.0,SSE,5.8,-,N/A,,Clear,160,2013-07-27 10:35:00
5:55 AM,59.0,56.7,92,30.17,7.0,South,5.8,-,N/A,,Clear,170,2013-07-27 10:55:00
6:15 AM,58.6,56.5,93,30.16,7.0,South,8.1,-,N/A,,Clear,190,2013-07-27 11:15:00
6:35 AM,59.0,57.0,93,30.18,5.0,SSW,8.1,-,N/A,,Clear,200,2013-07-27 11:35:00
6:55 AM,59.4,57.2,93,30.18,7.0,SSW,6.9,-,N/A,,Clear,200,2013-07-27 11:55:00
7:15 AM,59.9,57.6,92,30.19,7.0,SSW,5.8,-,N/A,,Clear,200,2013-07-27 12:15:00
7:35 AM,60.8,58.3,91,30.18,10.0,SSW,5.8,-,N/A,,Clear,200,2013-07-27 12:35:00
7:55 AM,63.9,60.6,89,30.18,10.0,SSW,9.2,-,N/A,,Clear,200,2013-07-27 12:55:00
8:15 AM,65.8,61.9,87,30.18,10.0,SSW,9.2,-,N/A,,Clear,200,2013-07-27 13:15:00
8:35 AM,67.6,62.4,83,30.18,10.0,SSW,9.2,-,N/A,,Clear,210,2013-07-27 13:35:00
8:55 AM,69.8,61.7,75,30.18,10.0,SSW,10.4,-,N/A,,Clear,210,2013-07-27 13:55:00
9:15 AM,71.4,61.7,71,30.18,10.0,SSW,12.7,-,N/A,,Clear,210,2013-07-27 14:15:00
9:35 AM,73.2,61.2,66,30.17,10.0,SSW,11.5,-,N/A,,Clear,200,2013-07-27 14:35:00
9:55 AM,74.7,59.7,60,30.17,10.0,SSW,12.7,-,N/A,,Clear,200,2013-07-27 14:55:00
10:15 AM,76.6,60.1,56,30.16,10.0,SSW,10.4,-,N/A,,Clear,200,2013-07-27 15:15:00
10:35 AM,77.5,60.3,55,30.16,10.0,SSW,12.7,-,N/A,,Clear,200,2013-07-27 15:35:00
10:55 AM,78.4,59.9,53,30.16,10.0,SSW,11.5,-,N/A,,Clear,200,2013-07-27 15:55:00
11:15 AM,79.2,59.7,51,30.16,10.0,SSW,9.2,-,N/A,,Clear,210,2013-07-27 16:15:00
11:35 AM,80.1,56.8,45,30.16,10.0,SSW,11.5,-,N/A,,Clear,210,2013-07-27 16:35:00
11:55 AM,81.5,57.4,44,30.15,10.0,SSW,12.7,18.4,N/A,,Clear,210,2013-07-27 16:55:00
12:15 PM,81.9,57.7,44,30.14,10.0,SSW,15.0,19.6,N/A,,Clear,200,2013-07-27 17:15:00
12:35 PM,82.2,54.3,38,30.14,10.0,SSW,13.8,-,N/A,,Clear,200,2013-07-27 17:35:00
12:55 PM,82.9,54.3,37,30.13,10.0,SSW,15.0,20.7,N/A,,Clear,210,2013-07-27 17:55:00
1:15 PM,84.4,53.1,34,30.12,10.0,SSW,15.0,21.9,N/A,,Clear,210,2013-07-27 18:15:00
1:35 PM,84.2,55.4,37,30.12,10.0,SSW,16.1,21.9,N/A,,Clear,200,2013-07-27 18:35:00
1:55 PM,84.6,54.0,35,30.10,10.0,SSW,18.4,21.9,N/A,,Clear,200,2013-07-27 18:55:00
2:15 PM,85.6,52.7,32,30.10,10.0,SSW,18.4,24.2,N/A,,Clear,200,2013-07-27 19:15:00
2:35 PM,85.6,53.8,33,30.09,10.0,South,18.4,25.3,N/A,,Clear,190,2013-07-27 19:35:00
2:55 PM,86.9,55.6,34,30.08,10.0,SSW,18.4,27.6,N/A,,Clear,200,2013-07-27 19:55:00
3:15 PM,86.4,55.9,35,30.07,10.0,SSW,18.4,25.3,N/A,,Clear,200,2013-07-27 20:15:00
3:35 PM,86.0,56.3,36,30.07,10.0,SSW,23.0,31.1,N/A,,Clear,210,2013-07-27 20:35:00
3:55 PM,87.1,55.0,33,30.06,10.0,SSW,21.9,25.3,N/A,,Clear,200,2013-07-27 20:55:00
4:15 PM,87.6,54.1,32,30.04,10.0,SSW,20.7,28.8,N/A,,Clear,210,2013-07-27 21:15:00
4:35 PM,87.8,53.6,31,30.04,10.0,SSW,19.6,29.9,N/A,,Clear,200,2013-07-27 21:35:00
4:55 PM,86.2,51.8,31,30.03,10.0,SSW,20.7,29.9,N/A,,Clear,200,2013-07-27 21:55:00
5:15 PM,86.5,51.4,30,30.02,10.0,SSW,24.2,27.6,N/A,,Clear,200,2013-07-27 22:15:00
5:35 PM,86.9,51.8,30,30.01,10.0,SSW,20.7,31.1,N/A,,Clear,200,2013-07-27 22:35:00
5:55 PM,86.4,51.8,30,30.00,10.0,South,18.4,25.3,N/A,,Clear,190,2013-07-27 22:55:00
6:15 PM,84.9,50.5,30,29.99,10.0,SSW,18.4,-,N/A,,Clear,200,2013-07-27 23:15:00
6:35 PM,84.9,50.9,31,29.99,10.0,South,19.6,26.5,N/A,,Clear,190,2013-07-27 23:35:00
6:55 PM,85.5,50.4,30,29.98,10.0,SSW,20.7,25.3,N/A,,Clear,200,2013-07-27 23:55:00
7:15 PM,84.0,48.7,29,29.98,10.0,South,20.7,-,N/A,,Clear,190,2013-07-28 00:15:00
7:35 PM,82.8,48.4,30,29.98,10.0,South,15.0,21.9,N/A,,Clear,190,2013-07-28 00:35:00
7:55 PM,82.4,48.2,30,30.00,10.0,South,15.0,-,N/A,,Clear,190,2013-07-28 00:55:00
8:15 PM,80.1,49.1,34,30.00,10.0,South,11.5,-,N/A,,Clear,190,2013-07-28 01:15:00
8:35 PM,77.9,49.6,37,30.00,10.0,South,10.4,-,N/A,,Clear,190,2013-07-28 01:35:00
8:55 PM,76.5,50.5,40,30.00,10.0,South,11.5,-,N/A,,Clear,190,2013-07-28 01:55:00
9:15 PM,75.2,50.9,42,30.01,10.0,South,11.5,-,N/A,,Clear,190,2013-07-28 02:15:00
9:35 PM,74.3,50.9,44,30.01,10.0,South,11.5,-,N/A,,Clear,190,2013-07-28 02:35:00
9:55 PM,73.4,51.1,45,30.02,10.0,South,11.5,-,N/A,,Clear,190,2013-07-28 02:55:00
10:15 PM,73.8,51.3,45,30.02,10.0,South,13.8,-,N/A,,Clear,180,2013-07-28 03:15:00
10:35 PM,73.6,52.0,47,30.03,10.0,South,16.1,21.9,N/A,,Clear,180,2013-07-28 03:35:00
10:55 PM,72.5,52.7,50,30.03,10.0,South,16.1,-,N/A,,Clear,190,2013-07-28 03:55:00
11:15 PM,71.2,53.6,54,30.03,10.0,South,13.8,-,N/A,,Clear,180,2013-07-28 04:15:00
11:35 PM,71.1,54.1,55,30.04,10.0,South,15.0,-,N/A,,Clear,180,2013-07-28 04:35:00
11:55 PM,70.9,54.1,55,30.03,10.0,South,15.0,-,N/A,,Clear,180,2013-07-28 04:55:00